Terminal Aerodrome Forecast
Issued by NWS

Home | Current Version | Previous Version | Text Only | Print | Product List | Glossary On
Versions: 1 2 3 4 5 6 7 8 9 10 11 12 13 14 15 16 17 18 19 20 21 22 23 24 25 26 27 28 29 30 31 32 33 34 35 36 37 38 39
000
FTUS41 KBTV 210932 AAA
TAFPBG
TAF AMD
KPBG 210932Z 2110/2206 34005KT 6SM BR OVC006
      TEMPO 2110/2112 5SM BR OVC010
     FM211200 VRB03KT P6SM BKN025
     FM211800 VRB04KT P6SM SCT020 BKN040
     FM220000 00000KT 6SM BR OVC015=

USA.gov is the U.S. government's official web portal to all federal, state and local government web resources and services.